Showing default

GCOM W1, 38337

Orbit data source: Space-Track

GCOM W1, 38337 is a payload satellite owned by JAXA (JP) in SSO that was launched on Thu, 17 May 2012 UTC via an H-IIA 202 launch vehicle from the Tanegashima Space Center (TNSTA). Payload-class satellites include a variety of spacecraft equipped with specific instruments for various scientific and technological missions. These include communications satellites like Starlink; space stations such as the ISS; scientific satellites like the Hubble; Earth observation satellites from companies like Planet Labs, Umbra, and HawkEye 360; GPS; miniature CubeSats for education and research; and military/defense satellites.

Loading next visibility...
Identifier
38337, 2012-025A
Orbit
SSO
Country
Flag of JPJP / JPN
Related business
Manufacturer
NECTF?
Mission
Operational Civil Science
Bus & Motor
GCOM, AOCS
Mass
1,991 kg wet, 1,841 kg dry
Launch date (UTC)
2012-05-17 (14 years ago)
Launch vehicle
H-IIA 202
Launch site
Tanegashima Space Center (TNSTA)
Object type
Payload
Rocket body
Debris
Shape & HBR
Box + 2 Pan + 1 Dish, 8.8 m
Radar Cross Section
35.969 m², Large (>1 m²)

Expand to show TLE details & history
Last TLE update: 6 hours ago

TLE from 6 hours ago
0 GCOM W1
1 38337U 12025A   25354.43300580  .00000446  00000-0  10900-3 0  9993
2 38337  98.2226 292.5410 0001315  67.8001  45.2988 14.57135677723004
Epoch: 2025-12-20T10:23Z
TLE epoch observation values (Epoch: 2025-12-20T10:23:31.701Z)
Latitude
65.63554°
Longitude
-114.09687°
Altitude
713.106 km
Speed
7.506 km/s
True Right ascension
08h 44m 10s
True Declination
65° 30' 19"
Sunlit
Object was in full shadow at epoch
Visualization orbit readout
Latitude
Unknown
Longitude
Unknown
Altitude
Unknown
Speed
Unknown
Apparent Right ascension
Unknown
Apparent Declination
Unknown
Sunlit
N/A
Visualization observer readout
Local Sidereal Time
15:08:16
Azimuth
Unknown
Elevation
Unknown
Doppler factor
Unknown
Orbital elements
Apogee altitude
700.455 km
Perigee altitude
698.593 km
Semi-major axis
7,077.661 km
Eccentricity
0.00013
Inclination
98.2226°
RAAN
292.541°
Arg. of periapsis
67.8001°
True anomaly
45.30951°
Mean anomaly
45.2988°
Eccentric anomaly
45.30416°
Mean motion
3.64509 °/min
Orbital period
98.76 mins
BSTAR
0.000109
Loading maneuver chart data...
Computing Atmospheric mass density...

Documentation

Showing up to 5 results
|